Location: Allos
(44.2333°N, 6.6333°E)
Time: 03:38:57
(UTC+00:00)

Daily predictions for brighter satellites

Satellite Brightness Start Highest point End
(mag) Time Altitude Azimuth Time Altitude Azimuth Time Altitude Azimuth
CENTAUR R/B 4.3 03:11:58 24° NNE 03:11:58 24° NNE 03:14:51 10° NNE
ATLAS 3B R/B 4.4 03:36:37 10° SSE 03:41:52 27° ESE 03:47:18 10° NE
Cosmos 2369 Rocket 3.9 03:51:56 22° NNE 03:51:56 22° NNE 03:53:52 10° NNE
CZ-2C R/B 4.1 03:52:00 10° SE 03:56:51 35° ENE 04:00:26 16° N
COSMO-SKYMED 1 4.4 03:55:25 10° SE 03:59:06 28° ENE 03:59:58 26° NE
Cosmos 2344 4.3 04:05:25 35° NNW 04:05:25 35° NNW 04:11:45 10° NNE
Cosmos 2279 Rocket 4.1 04:06:27 26° N 04:10:07 73° E 04:16:17 10° SSE
Envisat 4.0 04:08:21 10° NNE 04:13:14 45° E 04:18:05 10° S
SJ 16-02 2.8 04:13:24 10° SSE 04:17:24 36° ESE 04:21:26 10° NE
USA 215 4.1 04:12:25 10° E 04:18:25 41° NNE 04:20:33 32° NNW
Meteor 1-10 Rocket 4.4 04:17:47 27° N 04:20:50 66° ENE 04:26:21 10° SSE
Cosmos 1515 Rocket 4.5 04:22:56 32° NNE 04:24:28 46° ENE 04:28:39 10° SSE
SL-4 R/B 4.0 04:24:19 19° SSE 04:24:56 20° SE 04:27:37 10° E
Meteor 2-8 Rocket 4.4 04:25:11 12° N 04:30:56 84° E 04:37:02 10° S
ATLAS 5 CENTAUR R/B 1.3 04:41:25 78° NE 04:41:25 78° NE 04:45:26 10° NE
SKYMED 2 3.5 04:42:39 10° SSE 04:46:59 87° ENE 04:48:34 39° N
COSMOS 2487 3.6 04:47:50 32° NNE 04:48:39 38° ENE 04:51:47 10° SE
Cosmos 1354 Rocket 4.1 04:53:51 46° W 04:54:35 49° WNW 04:59:45 10° N
H-2A R/B 4.2 04:51:19 10° ESE 04:54:51 25° ENE 04:58:28 10° N
CZ-4B R/B 4.0 04:55:41 10° N 05:00:11 83° WNW 05:04:37 10° SSW
CENTAUR R/B 4.0 04:59:09 21° NNW 05:00:15 21° NNW 05:05:50 10° NNE
DELTA 2 R/B (1) 4.0 04:59:49 32° WSW 05:02:01 51° S 05:07:22 10° ESE
CZ-4C R/B 2.9 05:02:44 10° SSE 05:05:49 70° ENE 05:06:54 37° N
SL-19 R/B 4.5 05:01:07 10° S 05:06:28 48° WSW 05:09:39 24° NW
CZ-3 R/B 4.2 05:01:03 10° SW 05:10:01 19° S 05:14:40 10° SE
FALCON 9 DEB 4.4 05:14:23 22° N 05:14:38 23° NNE 05:17:00 10° ENE
BREEZE-M DEB (TANK) 4.3 05:06:52 23° WNW 05:14:53 75° SW 05:18:57 10° SE
FALCON 9 DEB 4.4 05:16:00 21° N 05:16:19 22° NNE 05:18:38 10° ENE
MOS 1-B Rocket 4.4 05:14:22 10° SSW 05:19:53 35° W 05:23:07 20° NW
Cosmos 1538 Rocket 3.9 05:16:45 13° NNW 05:21:24 85° WSW 05:26:34 10° SSE
Alouette 2 Rocket 3.1 05:20:03 14° NNW 05:23:09 87° E 05:26:56 10° SSE
Meteor 1-27 Rocket 3.8 05:17:54 10° NNW 05:23:31 61° W 05:29:13 10° S
Cosmos 2026 Rocket 4.5 05:17:35 10° S 05:23:49 65° E 05:30:01 10° NNE
SJ-7 4.4 05:22:03 10° NNE 05:26:14 88° ESE 05:30:20 10° SSW
ADEOS 3.5 05:22:33 10° NNE 05:27:47 79° WNW 05:33:00 10° SSW
Cosmos 2297 Rocket 3.0 05:24:38 10° NNW 05:30:11 50° ENE 05:35:40 10° SE
ATLAS 3B R/B 2.6 05:25:30 10° SW 05:31:59 65° NW 05:38:50 10° NNE
Cosmos 1607 3.9 05:26:35 14° NW 05:32:03 88° NE 05:38:12 10° SSE
Landsat 5 4.0 05:28:54 10° S 05:33:08 41° W 05:36:39 14° NNW
Cosmos 2369 Rocket 3.8 05:33:45 14° NW 05:33:45 14° NW 05:36:21 10° N
Cosmos 1340 Rocket 3.0 05:30:52 10° SSW 05:34:40 45° WNW 05:38:33 10° N
COSMO-SKYMED 1 3.4 05:31:25 10° SSW 05:35:11 29° W 05:37:10 20° NW
SL-27 R/B 4.2 05:36:25 17° WSW 05:36:25 17° WSW 05:38:12 10° SW
Cosmos 1777 Rocket 4.4 05:31:06 10° SW 05:35:59 39° WNW 05:40:54 10° N
CZ-2C R/B 3.3 05:32:12 10° SSW 05:37:06 34° W 05:41:55 10° NNW
CZ-4B R/B 3.4 05:34:21 10° SE 05:37:10 27° ENE 05:39:58 10° N
Cosmos 1680 Rocket 4.4 05:35:37 10° N 05:40:46 49° ENE 05:45:50 10° SE
Cosmos 1408 Rocket 4.5 05:37:47 10° SW 05:41:21 25° WNW 05:44:55 10° NNW
Cosmos 158 Rocket 4.1 05:36:53 11° NNW 05:41:47 58° WSW 05:46:57 10° S
CZ-4B R/B 2.5 05:40:35 10° N 05:44:11 80° WNW 05:47:49 10° SSW
Meteor 1-25 Rocket 4.1 05:39:35 10° SSW 05:45:10 74° W 05:50:45 10° N
FALCON 9 DEB 4.3 05:44:13 16° NNW 05:45:45 25° NNE 05:48:12 10° E
H-2A R/B 3.9 05:43:10 10° NNE 05:47:35 32° E 05:52:01 10° SSE
SMAP 3.6 05:43:20 10° NNE 05:47:59 63° ESE 05:52:34 10° S
Lacrosse 5 2.8 05:44:00 10° SSW 05:48:56 53° SE 05:53:54 10° NE
Meteor 1-31 Rocket 3.9 05:47:12 10° NNW 05:50:18 23° WNW 05:53:24 10° WSW
Cosmos 1898 Rocket 4.3 05:45:52 10° S 05:51:04 58° ESE 05:56:17 10° NNE
USA 32 4.1 05:46:37 10° NNW 05:51:46 58° W 05:56:53 10° SSW
Envisat 4.0 05:47:55 10° N 05:51:59 25° WNW 05:56:02 10° WSW
Cosmos 1743 Rocket 4.1 05:49:32 10° SW 05:53:31 34° WNW 05:57:30 10° N
SJ 16-02 2.4 05:52:35 10° WSW 05:56:04 23° WNW 05:59:34 10° N
Cosmos 923 Rocket 4.1 05:51:02 10° NNW 05:56:25 86° ENE 06:01:46 10° SSE
OPS 6432 4.3 05:55:13 15° NW 05:57:39 68° SW 06:01:18 10° SSE
CZ-2C R/B 3.0 05:53:11 10° N 05:58:04 59° WNW 06:03:11 10° SSW
Cosmos 1656 3.7 05:53:31 10° SSW 05:58:56 85° ESE 06:04:25 10° NNE
CZ-2D R/B 4.3 05:57:08 10° NNE 06:00:49 49° E 06:04:30 10° S
USA 215 3.3 05:54:31 10° SE 06:01:04 85° SW 06:07:39 10° NW
SL-4 R/B 1.7 06:00:34 10° WSW 06:04:05 66° NNW 06:07:50 10° NE
Cosmos 1666 Rocket 3.7 06:00:05 10° S 06:04:33 84° E 06:09:04 10° N
Lacrosse 4 Rocket 2.8 06:01:05 10° NNW 06:05:18 38° NE 06:09:30 10° ESE
NOAA 6 4.1 06:00:53 10° NNE 06:06:02 84° ESE 06:11:10 10° SSW
EO 1 Delta rocket 4.2 06:00:13 10° N 06:06:14 87° W 06:11:08 10° SSW
Cosmos 2227 Rocket 2.5 06:00:57 10° NNW 06:06:36 69° ENE 06:12:13 10° SSE
Cosmos 1939 Rocket 2.8 06:04:40 10° N 06:08:31 58° WNW 06:12:17 10° SSW
Cosmos 2228 Rocket 3.8 06:07:33 10° NNW 06:11:40 35° W 06:15:47 10° SSW
Okean 1 3.6 06:09:12 10° NNW 06:12:59 45° W 06:16:45 10° SSW
Meteor 2-4 Rocket 3.9 06:08:58 10° N 06:14:55 86° E 06:20:43 10° S
FengYun 1-2 T 4.2 06:10:48 10° N 06:16:14 66° WNW 06:21:40 10° SSW
Sich 1 3.5 06:14:47 10° SW 06:18:45 36° WNW 06:22:43 10° N
Meteor 1-18 Rocket 4.3 06:15:52 10° NNW 06:21:36 62° W 06:27:11 10° S
COSMOS 2487 4.4 06:21:36 10° WNW 06:22:53 12° W 06:24:11 10° WSW
Cosmos 990 Rocket 4.1 06:17:46 10° SW 06:22:55 56° WNW 06:28:05 10° NNE
Cosmos 1937 Rocket 3.7 06:18:27 10° SSW 06:23:41 81° ESE 06:28:59 10° NNE
BREEZE M DEB (TANK) 1.8 06:21:21 10° WNW 06:24:02 62° NNE 06:26:02 10° ESE
Cosmos 2112 Rocket 4.1 06:19:11 10° NNW 06:24:31 84° WSW 06:29:47 10° SSE
Cosmos 1500 4.0 06:22:13 10° SW 06:25:36 30° WNW 06:28:59 10° NNW
CZ-4B DEB 4.3 06:21:53 10° NNE 06:27:23 90° WNW 06:32:50 10° SSW
